Terug naar catalogus

THORAD DELTA 1 DEB

ActiefSSO
NORAD 8311·DEBRIS·🇺🇸 United States

Gelanceerd Nov 15, 1974 vanaf Vandenberg Space Force Base

Loading…

Volgende Passages (komende 24 uur)

TLE

VersSource: Space-Track

Epoch: Sep 14, 2026, 16:32 UTC

1 08311U 74089BU  26257.68892919 -.00000040  00000-0  45459-4 0  9991
2 08311 102.1725 232.9319 0036225 201.9473 331.3509 12.45553844356375

Volg THORAD DELTA 1 DEB in realtime met AllMySat

Download on the App Store